Timberlake, NC

4:14 PM EST on February 20, 2017 (GMT -0500)
Person County

Weather History for KTDF - March, 2012

Change the Weather History Date:

Saturday, March 3, 2012

  Actual Average Record
Temperature  
Mean Temperature 54 °F -  
Max Temperature 57 °F 59 °F 80 °F (1976)
Min Temperature 50 °F 35 °F 7 °F (1980)
Degree Days  
Heating Degree Days 12    
Growing Degree Days 4 (Base 50)    
Moisture  
Dew Point 46 °F    
Average Humidity 80    
Maximum Humidity 100    
Minimum Humidity 38    
Precipitation  
Precipitation 0.39 in - - ()
Sea Level Pressure  
Sea Level Pressure 29.69 in    
Wind  
Wind Speed 3 mph (WNW)    
Max Wind Speed 10 mph    
Max Gust Speed 26 mph    
Visibility 8 miles    
Events Fog , Rain , Thunderstorm    
Averages and records for this station are not official NWS values.
T = Trace of Precipitation, MM = Missing Value Source: NWS Daily Summary

Daily Weather History Graph

Daily Weather History Graph

Search for Another Location

Airport or City:

Trip Planner

Search our weather history database for the weather conditions in past years. The results will help you decide how hot, cold, wet, or windy it might be!

Date:

Astronomy

Mar. 03, 2012 Rise Set
Actual Time 6:42 AM EST 6:13 PM EST
Civil Twilight 6:17 AM EST 6:38 PM EST
Nautical Twilight 5:47 AM EST 7:08 PM EST
Astronomical Twilight 5:17 AM EST 7:38 PM EST
Moon 1:28 PM EST (3/3) 3:11 AM EST (3/3)
Length of Visible Light 12h 21m
Length of Day
11h 30m
Waxing Gibbous, 75% of the Moon is Illuminated
Mar 3
Waxing Gibbous
Mar 8
Full
Mar 14
Last Quarter
Mar 22
New
Mar 30
First Quarter

Hourly Weather History & Observations

Time (EST) Temp. Dew Point Humidity Pressure Visibility Wind Dir Wind Speed Gust Speed Precip Events Conditions
12:15 AM 53.6 °F 53.6 °F 100% 29.69 in 0.2 mi Calm Calm - N/A Fog Fog
12:35 AM 53.6 °F 53.6 °F 100% 29.71 in 0.2 mi Calm Calm - N/A Fog Fog
12:55 AM 53.6 °F 53.6 °F 100% 29.69 in 0.2 mi Calm Calm - N/A Fog Fog
1:15 AM 55.4 °F 55.4 °F 100% 29.69 in 0.5 mi Calm Calm - N/A Fog Fog
1:35 AM 55.4 °F 55.4 °F 100% 29.68 in 2.0 mi Calm Calm - N/A Thunderstorm Mostly Cloudy
1:55 AM 55.4 °F 55.4 °F 100% 29.67 in 2.5 mi Calm Calm - N/A Thunderstorm Scattered Clouds
2:15 AM 55.4 °F 55.4 °F 100% 29.66 in 1.8 mi Calm Calm - N/A   Mostly Cloudy
2:35 AM 55.4 °F 55.4 °F 100% 29.67 in 2.0 mi NW 9.2 mph - N/A   Overcast
2:55 AM 51.8 °F 51.8 °F 100% 29.68 in 1.8 mi NW 8.1 mph - N/A Rain Rain
3:15 AM 51.8 °F 51.8 °F 100% 29.67 in 2.5 mi NW 3.5 mph - 0.03 in Rain Rain
3:35 AM 50.0 °F 50.0 °F 100% 29.64 in 7.0 mi North 4.6 mph - 0.07 in Rain , Thunderstorm Light Thunderstorms and Rain
3:55 AM 50.0 °F 50.0 °F 100% 29.64 in 7.0 mi SE 4.6 mph - 0.08 in Rain Rain
4:15 AM 50.0 °F 50.0 °F 100% 29.64 in 5.0 mi SSW 4.6 mph - 0.06 in Rain Rain
4:35 AM 50.0 °F 50.0 °F 100% 29.64 in 3.0 mi Calm Calm - 0.15 in Rain Heavy Rain
4:55 AM 50.0 °F 50.0 °F 100% 29.65 in 5.0 mi NW 4.6 mph - 0.19 in Rain Rain
5:15 AM 50.0 °F 50.0 °F 100% 29.64 in 7.0 mi Calm Calm - 0.02 in Rain Light Rain
5:35 AM 50.0 °F 50.0 °F 100% 29.63 in 7.0 mi SE 3.5 mph - 0.03 in Rain Light Rain
5:55 AM 50.0 °F 50.0 °F 100% 29.63 in 7.0 mi South 4.6 mph - 0.05 in Rain Rain
6:15 AM 53.6 °F 53.6 °F 100% 29.63 in 10.0 mi WSW 4.6 mph - 0.01 in Rain Light Rain
6:35 AM 55.4 °F 55.4 °F 100% 29.63 in 10.0 mi SSW 9.2 mph - 0.03 in Rain Light Rain
6:55 AM 55.4 °F 55.4 °F 100% 29.64 in 10.0 mi SW 5.8 mph - 0.03 in   Overcast
7:15 AM 55.4 °F 55.4 °F 100% 29.67 in 10.0 mi WSW 8.1 mph - 0.01 in Rain Light Rain
7:35 AM 57.2 °F 57.2 °F 100% 29.65 in 10.0 mi West 8.1 mph 20.7 mph 0.02 in Rain Light Rain
7:55 AM 55.4 °F 55.4 °F 100% 29.58 in 10.0 mi ESE 6.9 mph - 0.03 in Rain Light Rain
8:15 AM 55.4 °F 55.4 °F 100% 29.69 in 10.0 mi NW 9.2 mph 26.5 mph N/A   Overcast
8:35 AM 51.8 °F 51.8 °F 100% 29.70 in 5.0 mi NW 5.8 mph - N/A   Heavy Drizzle
8:55 AM 51.8 °F 51.8 °F 100% 29.70 in 4.0 mi WNW 3.5 mph - 0.01 in   Drizzle
9:15 AM 51.8 °F 51.8 °F 100% 29.72 in 10.0 mi West 3.5 mph - N/A   Overcast
9:35 AM 51.8 °F 51.8 °F 100% 29.70 in 10.0 mi Calm Calm - N/A   Overcast
9:55 AM 51.8 °F 51.8 °F 100% 29.72 in 10.0 mi West 3.5 mph - N/A   Overcast
10:15 AM 53.6 °F 53.6 °F 100% 29.72 in 10.0 mi WNW 4.6 mph - N/A   Overcast
10:35 AM 53.6 °F 50.0 °F 88% 29.73 in 10.0 mi NW 5.8 mph - N/A   Overcast
10:55 AM 53.6 °F 48.2 °F 82% 29.71 in 10.0 mi Calm Calm - N/A   Overcast
11:15 AM 53.6 °F 46.4 °F 77% 29.72 in 10.0 mi Calm Calm - N/A   Mostly Cloudy
11:35 AM 53.6 °F 46.4 °F 77% 29.72 in 10.0 mi WNW 8.1 mph - N/A   Overcast
11:55 AM 55.4 °F 44.6 °F 67% 29.71 in 10.0 mi NW 4.6 mph - N/A   Mostly Cloudy
12:15 PM 53.6 °F 44.6 °F 72% 29.72 in 10.0 mi NW 5.8 mph - N/A   Mostly Cloudy
12:35 PM 53.6 °F 42.8 °F 67% 29.72 in 10.0 mi WNW 9.2 mph - N/A   Scattered Clouds
12:55 PM 55.4 °F 41.0 °F 58% 29.72 in 10.0 mi WNW 8.1 mph - N/A   Mostly Cloudy
1:15 PM 55.4 °F 41.0 °F 58% 29.72 in 10.0 mi WNW 8.1 mph - N/A   Overcast
1:35 PM 55.4 °F 37.4 °F 51% 29.73 in 10.0 mi NW 9.2 mph - N/A   Overcast
1:55 PM 55.4 °F 37.4 °F 51% 29.70 in 10.0 mi NNW 10.4 mph 18.4 mph N/A   Overcast
2:15 PM 53.6 °F 28.4 °F 38% 29.72 in 10.0 mi WNW 5.8 mph 17.3 mph N/A   Overcast
2:35 PM 55.4 °F 30.2 °F 38% 29.72 in 10.0 mi WNW 6.9 mph - N/A   Mostly Cloudy
2:55 PM 57.2 °F 32.0 °F 38% 29.72 in 10.0 mi WNW 5.8 mph - N/A   Clear
3:15 PM 57.2 °F 32.0 °F 38% 29.72 in 10.0 mi West 6.9 mph - N/A   Clear
3:35 PM 57.2 °F 33.8 °F 41% 29.73 in 10.0 mi West 4.6 mph - N/A   Clear
3:55 PM 55.4 °F 32.0 °F 41% 29.74 in 10.0 mi WNW 5.8 mph - N/A   Clear
4:15 PM 55.4 °F 32.0 °F 41% 29.72 in 10.0 mi WNW 3.5 mph - N/A   Clear
4:35 PM 55.4 °F 33.8 °F 44% 29.74 in 10.0 mi Calm Calm - N/A   Clear
4:55 PM 53.6 °F 32.0 °F 44% 29.74 in 10.0 mi NW 4.6 mph - N/A   Clear
5:15 PM 53.6 °F 33.8 °F 47% 29.72 in 10.0 mi Calm Calm - N/A   Clear
5:35 PM 53.6 °F 33.8 °F 47% 29.73 in 10.0 mi Calm Calm - N/A   Clear
5:55 PM 53.6 °F 33.8 °F 47% 29.73 in 10.0 mi Calm Calm - N/A   Clear
6:15 PM 51.8 °F 37.4 °F 58% 29.74 in 10.0 mi Calm Calm - N/A   Clear
6:35 PM 50.0 °F 39.2 °F 66% 29.75 in 10.0 mi Calm Calm - N/A   Clear
6:55 PM 50.0 °F 41.0 °F 71% 29.75 in 10.0 mi Calm Calm - N/A   Clear
7:15 PM 50.0 °F 41.0 °F 71% 29.76 in 10.0 mi Calm Calm - N/A   Clear
7:35 PM 50.0 °F 41.0 °F 71% 29.75 in 10.0 mi Calm Calm - N/A   Clear
7:55 PM 48.2 °F 42.8 °F 82% 29.75 in 10.0 mi Calm Calm - N/A   Mostly Cloudy
8:15 PM 48.2 °F 42.8 °F 82% 29.74 in 10.0 mi Calm Calm - N/A   Overcast
8:35 PM 48.2 °F 42.8 °F 82% 29.75 in 10.0 mi Calm Calm - N/A   Overcast
8:55 PM 46.4 °F 42.8 °F 87% 29.76 in 10.0 mi Calm Calm - N/A   Mostly Cloudy
9:15 PM 46.4 °F 42.8 °F 87% 29.73 in 10.0 mi Calm Calm - N/A   Mostly Cloudy
9:35 PM 46.4 °F 42.8 °F 87% 29.76 in 10.0 mi Calm Calm - N/A   Overcast
9:55 PM 46.4 °F 42.8 °F 87% 29.74 in 10.0 mi Calm Calm - N/A   Overcast
10:15 PM 46.4 °F 42.8 °F 87% 29.76 in 10.0 mi Calm Calm - N/A   Mostly Cloudy
10:35 PM 46.4 °F 44.6 °F 93% 29.75 in 10.0 mi Calm Calm - N/A   Overcast
10:55 PM 46.4 °F 44.6 °F 93% 29.74 in 10.0 mi Calm Calm - N/A   Overcast
11:15 PM 44.6 °F 42.8 °F 93% 29.76 in 10.0 mi Calm Calm - N/A   Overcast
11:35 PM 46.4 °F 42.8 °F 87% 29.76 in 10.0 mi Calm Calm - N/A   Overcast
11:55 PM 46.4 °F 42.8 °F 87% 29.75 in 10.0 mi Calm Calm - N/A   Mostly Cloudy